1998-067JH

Last updated on Fri May 20 2016 09:36:28 GMT+0000 (Coordinated Universal Time)

1 41487U 98067JH 16141.12984877 .00022857 00000-0 33716-3 0 9990 2 41487 51.6419 197.9964 0003763 33.4544 60.1360 15.55270734 318

Satellite not in orbit